ICT,Max TemperatureF,Mean TemperatureF,Min TemperatureF,Max Dew PointF,MeanDew PointF,Min DewpointF,Max Humidity, Mean Humidity, Min Humidity, Max Sea Level PressureIn, Mean Sea Level PressureIn, Min Sea Level PressureIn, Max VisibilityMiles, Mean VisibilityMiles, Min VisibilityMiles, Max Wind SpeedMPH, Mean Wind SpeedMPH, Max Gust SpeedMPH,PrecipitationIn, CloudCover, Events, WindDirDegrees
2013-10-1,77,74,71,75,73,71,100,95,84,29.80,29.76,29.73,7,5,2,5,1,,0.00,8,Rain,150
2013-10-2,90,81,72,77,74,72,100,84,62,29.92,29.86,29.80,7,6,4,4,1,,0.00,6,Rain-Thunderstorm,319
2013-10-3,91,80,73,78,76,73,100,85,62,29.95,29.86,29.77,7,5,1,4,1,,0.98,5,Rain,180
2013-10-4,92,82,74,77,73,66,100,76,46,29.92,29.82,29.74,7,6,2,6,2,,0.00,6,Rain,8
2013-10-5,93,84,75,77,74,72,100,80,52,29.86,29.76,29.65,7,6,2,9,2,,0.00,5,Thunderstorm,67
2013-10-6,92,81,73,77,75,73,100,79,61,29.89,29.80,29.71,6,5,1,2,1,,0.00,2,,-1
2013-10-7,91,80,72,77,74,72,96,80,48,29.89,29.82,29.77,6,3,0,2,0,,0.35,2,Fog,-1
2013-10-8,92,80,71,75,73,68,100,75,39,29.89,29.82,29.74,6,4,1,4,1,,0.00,2,Fog,27
2013-10-9,91,77,65,75,69,66,94,72,42,29.92,29.85,29.74,6,5,3,4,1,,0.00,3,,294
2013-10-10,92,80,68,73,70,66,94,71,41,29.98,29.87,29.77,7,5,1,2,0,,0.00,2,,-1
2013-10-11,91,79,69,74,71,69,100,72,52,29.98,29.88,29.77,5,5,2,6,2,,0.00,3,,92
2013-10-12,93,80,68,79,72,69,100,78,48,29.90,29.83,29.74,6,5,1,4,1,,0.00,1,,52
2013-10-13,93,81,69,77,73,70,100,75,49,29.92,29.80,29.71,6,5,1,5,2,,0.00,5,,7
2013-10-14,93,80,68,75,73,70,100,71,49,29.86,29.77,29.68,7,5,0,5,2,,0.00,4,Fog,318
2013-10-15,92,79,69,74,73,70,100,78,48,29.86,29.77,29.68,6,4,0,4,1,,0.00,2,Fog,10
2013-10-16,86,78,71,73,71,68,94,75,51,29.78,29.73,29.65,6,4,1,6,1,,0.00,7,,180
2013-10-17,78,74,70,75,73,71,100,93,74,29.89,29.85,29.82,6,3,1,7,1,,0.00,8,Rain,337
2013-10-18,83,76,71,77,74,72,100,90,77,30.01,29.93,29.86,7,5,2,9,3,,0.00,8,Rain,27
2013-10-19,88,80,74,77,74,73,96,86,70,29.96,29.90,29.80,7,5,4,2,0,,T,7,,-1
2013-10-20,91,80,71,74,72,70,100,74,52,29.97,29.88,29.80,7,6,1,5,1,,0.00,4,,198
2013-10-21,89,80,71,77,73,71,94,83,50,29.92,29.86,29.77,7,6,6,4,1,,0.00,7,,46
2013-10-22,90,80,71,74,73,72,100,80,51,30.01,29.92,29.83,7,6,1,5,1,,0.00,3,,103
2013-10-23,91,81,71,75,73,71,100,84,46,29.98,29.91,29.83,10,5,0,5,1,,0.00,5,Fog,12
2013-10-24,83,78,73,77,74,72,100,90,83,29.94,29.86,29.80,7,4,1,6,0,,0.00,7,Rain,180
2013-10-25,85,78,71,72,70,67,94,74,53,30.01,29.94,29.86,7,6,6,14,3,18,0.00,5,Rain-Thunderstorm,208
2013-10-26,87,78,68,70,69,68,100,75,47,30.06,29.96,29.86,7,6,6,9,3,,0.00,3,,101
2013-10-27,87,76,66,72,69,66,96,69,47,30.01,29.92,29.83,6,5,0,9,3,,0.00,4,Fog,209
2013-10-28,87,80,72,72,69,66,93,73,58,29.97,29.90,29.77,7,4,1,5,1,,0.00,6,,0
2013-10-29,86,78,70,75,72,70,100,79,56,30.04,29.96,29.86,6,4,1,6,1,,T,8,Rain,277
2013-10-30,88,79,70,76,73,70,100,81,56,30.01,29.93,29.83,6,4,1,4,1,,0.00,6,,164
2013-10-31,92,82,71,75,74,71,100,76,47,30.01,29.92,29.83,6,5,0,4,1,,0.00,3,Fog,64